Weather History for Alexandria Esle, LA

Change the Weather History Date:

Saturday, March 22, 2014

  Actual Average Record
Temperature  
Mean Temperature 70 °F -  
Max Temperature 82 °F 70 °F 82 °F (1975)
Min Temperature 57 °F 46 °F 31 °F (1963)
Cooling Degree Days 4    
Growing Degree Days 20 (Base 50)    
Moisture  
Dew Point 57 °F    
Average Humidity 69    
Maximum Humidity 90    
Minimum Humidity 42    
Precipitation  
Precipitation 0.00 in - - ()
Sea Level Pressure  
Sea Level Pressure 30.00 in    
Wind  
Wind Speed 2 mph (West)    
Max Wind Speed 8 mph    
Max Gust Speed -    
Visibility 9 miles    
Events      
Averages and records for this station are not official NWS values.
T = Trace of Precipitation, MM = Missing Value Source: NWS Daily Summary

Daily Weather History Graph

Daily Weather History Graph

Search for Another Location

Airport:

Trip Planner

Search our weather history database for the weather conditions in past years. The results will help you decide how hot, cold, wet, or windy it might be!

Date:

Astronomy

Mar. 22, 2014 Rise Set
Actual Time 7:10 AM CDT 7:22 PM CDT
Civil Twilight 6:46 AM CDT 7:46 PM CDT
Nautical Twilight 6:17 AM CDT 8:14 PM CDT
Astronomical Twilight 5:49 AM CDT 8:43 PM CDT
Moon 12:24 AM CDT (3/22) 11:12 AM CDT (3/22)
Length of Visible Light 13h 00m
Length of Day
12h 11m
Waning Gibbous, 65% of the Moon is Illuminated
Mar 22
Waning Gibbous
Mar 23
Last Quarter
Mar 30
New
Apr 7
First Quarter
Apr 15
Full

Hourly Weather History & Observations

Time (CDT) Temp. Heat Index Dew Point Humidity Pressure Visibility Wind Dir Wind Speed Gust Speed Precip Events Conditions
12:53 AM 63.0 °F - 54.0 °F 72% 30.00 in 10.0 mi SSW 3.5 mph - N/A   Clear
1:53 AM 62.1 °F - 55.0 °F 78% 30.00 in 10.0 mi SW 3.5 mph - N/A   Mostly Cloudy
2:53 AM 61.0 °F - 55.0 °F 81% 29.99 in 10.0 mi Calm Calm - N/A   Overcast
3:53 AM 61.0 °F - 55.9 °F 83% 29.98 in 10.0 mi Calm Calm - N/A   Mostly Cloudy
4:53 AM 59.0 °F - 55.9 °F 90% 29.99 in 10.0 mi Calm Calm - N/A   Overcast
5:53 AM 59.0 °F - 55.0 °F 87% 29.99 in 9.0 mi Calm Calm - N/A   Overcast
6:53 AM 57.9 °F - 55.0 °F 90% 30.00 in 8.0 mi Calm Calm - N/A   Overcast
7:46 AM 57.9 °F - 55.0 °F 90% 30.03 in 6.0 mi NNW 3.5 mph - N/A   Mostly Cloudy
7:53 AM 59.0 °F - 55.0 °F 87% 30.03 in 6.0 mi Calm Calm - N/A   Mostly Cloudy
8:41 AM 61.0 °F - 57.0 °F 87% 30.03 in 8.0 mi Calm Calm - N/A   Scattered Clouds
8:53 AM 62.1 °F - 57.0 °F 84% 30.03 in 8.0 mi Calm Calm - N/A   Partly Cloudy
9:53 AM 68.0 °F - 60.1 °F 76% 30.04 in 10.0 mi SSW 3.5 mph - N/A   Mostly Cloudy
10:53 AM 70.0 °F - 61.0 °F 73% 30.06 in 10.0 mi NW 3.5 mph - N/A   Overcast
11:53 AM 75.9 °F - 60.1 °F 58% 30.04 in 10.0 mi WSW 8.1 mph - N/A   Clear
12:53 PM 81.0 °F 81.1 °F 57.9 °F 45% 30.01 in 10.0 mi Variable 3.5 mph - N/A   Scattered Clouds
1:53 PM 81.0 °F 80.8 °F 55.9 °F 42% 29.99 in 10.0 mi Variable 3.5 mph - N/A   Overcast
2:53 PM 82.0 °F 81.7 °F 57.0 °F 42% 29.97 in 10.0 mi Variable 3.5 mph - N/A   Overcast
3:53 PM 80.1 °F 80.4 °F 57.0 °F 45% 29.95 in 10.0 mi Variable 3.5 mph - N/A   Mostly Cloudy
4:53 PM 82.0 °F 81.7 °F 57.0 °F 42% 29.94 in 10.0 mi Calm Calm - N/A   Clear
5:53 PM 81.0 °F 81.0 °F 57.0 °F 44% 29.94 in 10.0 mi Calm Calm - N/A   Mostly Cloudy
6:53 PM 75.9 °F - 59.0 °F 56% 29.96 in 10.0 mi Calm Calm - N/A   Mostly Cloudy
7:53 PM 75.0 °F - 59.0 °F 57% 29.97 in 10.0 mi ENE 4.6 mph - N/A   Overcast
8:53 PM 73.0 °F - 59.0 °F 61% 29.98 in 10.0 mi NE 4.6 mph - N/A   Scattered Clouds
9:53 PM 71.1 °F - 60.1 °F 68% 30.00 in 10.0 mi Variable 3.5 mph - N/A   Mostly Cloudy
10:53 PM 70.0 °F - 60.1 °F 71% 30.00 in 10.0 mi Calm Calm - N/A   Mostly Cloudy
11:53 PM 66.9 °F - 60.1 °F 79% 29.99 in 10.0 mi Calm Calm - N/A   Clear